Location: Schommer Observatory
(40.5200°N, 74.4500°W)
Time: 01:28:08
(UTC-04:00)

ISS - Pass Details

Date: 16 May 2018
Orbit: 402 x 407 km, 51.6° (Epoch: 24 May)

Event Time Altitude Azimuth Distance (km) Brightness Sun altitude
Rises 03:40:31 0° 308° (NW) 2,318 0.0 -18.9°
Reaches altitude 10° 03:43:34 10° 339° (NNW) 1,458 -0.7 -18.5°
Maximum altitude 03:45:04 13° 7° (N) 1,314 -0.5 -18.4°
Drops below altitude 10° 03:46:34 10° 34° (NE) 1,457 0.2 -18.2°
Sets 03:49:37 0° 66° (ENE) 2,316 1.3 -17.8°
